CAPE
0 0 0 0 0 0 0 0 0 0 0 0 0 0 0 0 0 0 0 0 0 1 1 1 0 3 2 0 0 0 3 3 0 29 17 6 0 0 0 0 0 0 0 2
0 0 0 0 0 0 0 0 0 0 0 0 0 0 0 0 0 0 0 3 5 9 12 2 2 0 0 0 0 0 2 0 14 24 36 11 7 0 0 0 0 0 0 30
0 0 0 0 0 0 0 0 0 0 0 0 0 0 0 0 0 0 11 8 11 6 13 1 1 0 0 0 11 1 0 3 0 8 22 10 2 0 0 0 0 0 6 64
0 0 0 0 0 0 0 0 0 0 0 0 0 0 0 0 0 0 6 8 3 2 7 10 8 1 0 0 0 0 0 2 0 0 0 20 0 0 0 0 0 0 0 19
0 0 0 0 0 0 0 0 0 0 0 0 0 0 0 8 1 4 3 6 3 0 3 10 11 5 1 0 0 0 1 1 0 0 70 70 0 10 0 0 8 0 49 0
0 0 1 0 0 0 0 0 0 0 0 0 0 0 2 8 14 5 8 0 2 2 2 9 10 6 3 6 0 2 3 2 0 71 70 6 0 0 1 2 2 0 36 1
0 0 0 2 0 0 0 0 0 0 0 0 0 0 0 4 9 10 1 1 2 1 2 3 1 1 0 2 0 1 1 2 1 1 20 7 0 0 1 2 4 3 1 2
0 0 0 1 0 0 0 0 0 0 0 0 0 0 0 0 0 0 0 1 0 2 1 2 5 0 1 1 0 0 0 2 1 0 4 0 0 0 1 1 1 2 4 3
0 0 0 0 3 0 0 0 2 0 0 0 0 0 3 2 0 0 0 0 2 0 0 0 1 1 0 0 0 1 0 1 0 0 0 0 1 1 0 0 1 1 5 2
0 0 0 0 1 0 0 0 8 0 0 0 0 0 6 8 10 0 0 0 0 0 1 2 0 1 0 0 0 0 0 1 0 0 1 0 1 0 0 0 0 0 6 4
0 0 1 1 2 0 0 0 4 0 0 0 0 0 0 0 0 0 0 0 0 0 1 1 2 0 0 5 1 1 0 0 0 0 0 0 1 0 0 0 0 3 4 4
0 0 0 0 1 0 0 0 0 2 0 0 0 0 0 0 0 1 1 5 2 4 1 2 6 3 1 1 0 0 0 2 1 1 0 0 1 0 0 0 0 2 5 4
0 0 0 0 3 0 0 0 0 0 0 0 0 0 0 0 0 0 2 0 0 0 3 4 2 2 1 5 1 2 0 4 6 1 1 4 1 1 0 0 0 2 5 0
0 0 0 0 0 1 0 2 1 0 0 0 0 0 0 0 0 0 0 0 1 0 0 9 4 4 1 16 5 2 2 0 0 10 2 6 1 1 1 0 1 1 5 2
0 0 0 0 0 0 0 5 8 2 0 0 0 0 0 0 0 0 0 0 0 0 4 9 4 0 0 10 4 4 5 2 3 7 2 9 2 3 5 1 0 2 0 2
0 0 0 0 0 0 0 0 0 1 0 0 0 0 0 0 0 0 0 0 0 0 6 11 7 0 2 15 8 11 10 9 9 18 10 2 2 9 8 3 4 6 2 2
0 0 0 0 0 0 0 0 0 0 0 0 0 0 0 0 0 0 0 0 0 0 6 12 4 6 9 5 3 2 7 7 6 3 2 4 3 3 9 9 8 4 4 5
0 0 0 0 0 0 1 4 0 0 0 0 0 0 0 0 0 0 0 0 0 0 4 3 7 2 0 5 6 8 13 8 10 14 15 13 11 10 7 4 8 10 10 7
0 0 0 0 0 0 1 0 0 0 0 0 0 0 0 0 0 0 0 0 0 0 0 0 0 0 0 5 4 1 2 9 12 7 11 10 5 7 10 5 3 7 10 9
0 0 0 0 0 0 0 0 0 0 0 0 0 0 0 0 0 0 0 0 0 0 0 0 0 0 1 0 0 0 0 0 0 0 0 0 0 0 0 0 3 7 8 12
0 0 0 2 0 1 0 0 0 0 0 0 0 0 0 0 0 0 0 0 0 0 0 0 0 0 0 0 0 0 0 0 0 0 0 0 1 1 1 1 3 0 7 8
0 0 0 0 0 0 0 0 0 0 0 0 0 0 0 0 0 0 0 0 0 0 0 0 0 0 0 0 0 0 0 0 0 0 0 0 0 0 0 0 0 0 0 0
1 0 0 0 0 0 0 0 0 0 0 0 0 0 0 0 0 0 0 0 0 0 0 0 0 0 0 0 0 0 0 0 0 0 0 0 0 0 0 0 0 0 0 0
0 0 0 0 0 0 0 0 0 0 0 0 0 0 0 0 0 0 0 0 0 0 0 0 0 0 0 0 0 0 0 0 0 0 0 0 0 0 0 0 0 0 0 0
0 0 0 0 0 0 0 0 0 0 0 0 0 0 0 0 0 0 0 0 0 0 0 0 0 0 0 0 0 0 0 0 0 0 0 0 0 0 0 0 0 0 0 0
0 0 0 0 0 0 0 0 0 0 0 0 0 0 0 0 0 0 0 0 0 0 0 0 0 0 0 0 0 0 0 0 0 0 0 0 0 0 0 0 0 0 0 0
0 0 0 0 0 0 0 0 0 0 0 0 0 0 0 0 0 0 0 0 0 0 0 0 0 0 0 0 0 0 0 0 0 0 0 0 0 0 0 0 0 0 0 0
CIN
-0 -0 -0 -0 -0 -0 -0 -0 -0 -0 -0 -0 -0 -0 -0 -0 -0 -0 -0 -0 -0 -2 -2 -3 -0 -1 -3 -0 -0 -0 -0 -0 -0 -8 -6 -7 -0 -0 -0 -0 -0 -0 -0 -3
-0 -0 -0 -0 -0 -0 -0 -0 -0 -0 -0 -0 -0 -0 -0 -0 -0 -0 -1 -3 -3 -5 -3 -2 -2 -0 -2 -0 -0 -0 -0 -0 -11 -10 -8 -17 -7 -1 -0 -0 -0 -0 -0 -9
-0 -0 -0 -0 -0 -0 -0 -0 -0 -0 -0 -0 -0 -0 -0 -0 -0 -0 -2 -5 -4 -5 -3 -6 -1 -0 -0 -0 -1 -0 -0 -0 -0 -4 -5 -7 -4 -0 -0 -0 -0 -0 -1 -39
-0 -0 -0 -0 -0 -0 -0 -0 -0 -0 -0 -0 -0 -0 -0 -0 -1 -0 -4 -6 -10 -8 -0 -2 -2 -0 -0 -0 -0 -1 -0 -0 -0 -0 -0 -44 -0 -0 -0 -0 -0 -0 -0 -113
-0 -0 -0 -0 -0 -0 -0 -0 -0 -0 -0 -0 -0 -0 -0 -3 -1 -3 -4 -5 -6 -6 -0 -0 -0 -2 -2 -0 -0 -0 -1 -0 -0 -0 -38 -3 -1 -20 -0 -1 -13 -3 -32 -0
-0 -0 -0 -0 -0 -0 -0 -0 -0 -0 -0 -0 -0 -0 -3 -4 -2 -1 -4 -2 -0 -1 -0 -0 -0 -0 -0 -0 -0 -1 -0 -0 -0 -1 -4 -5 -0 -0 -0 -0 -0 -0 -24 -0
-0 -0 -0 -0 -0 -0 -0 -0 -0 -0 -0 -0 -0 -0 -2 -2 -2 -5 -5 -2 -1 -0 -1 -0 -0 -0 -0 -1 -0 -1 -0 -0 -0 -0 -2 -12 -0 -0 -0 -0 -0 -0 -0 -0
-0 -0 -0 -0 -0 -0 -0 -0 -0 -0 -0 -0 -0 -0 -0 -0 -0 -1 -0 -2 -0 -2 -1 -2 -1 -0 -0 -1 -0 -0 -0 -0 -0 -0 -1 -0 -0 -0 -0 -0 -0 -0 -0 -0
-0 -0 -0 -0 -0 -0 -0 -0 -0 -0 -0 -0 -0 -0 -1 -2 -0 -0 -0 -0 -3 -0 -1 -0 -3 -0 -0 -0 -0 -0 -0 -0 -0 -0 -0 -0 -0 -0 -0 -0 -0 -0 -0 -0
-0 -0 -0 -0 -0 -0 -0 -0 -0 -0 -0 -0 -0 -0 -0 -1 -1 -0 -0 -0 -0 -0 -2 -1 -0 -1 -0 -0 -0 -0 -0 -0 -0 -0 -0 -0 -0 -0 -0 -0 -0 -0 -0 -0
-0 -0 -0 -0 -0 -0 -0 -0 -0 -0 -0 -0 -0 -0 -0 -0 -0 -0 -0 -0 -0 -0 -1 -1 -0 -0 -0 -0 -0 -0 -0 -1 -0 -0 -0 -0 -0 -0 -0 -0 -0 -0 -0 -0
-0 -0 -0 -0 -0 -0 -0 -0 -0 -0 -0 -0 -0 -0 -0 -0 -0 -0 -1 -0 -0 -0 -1 -1 -0 -0 -0 -1 -1 -0 -0 -0 -0 -0 -4 -0 -0 -0 -0 -0 -0 -0 -0 -0
-0 -0 -0 -0 -1 -0 -0 -0 -0 -0 -0 -0 -0 -0 -0 -0 -0 -0 -0 -0 -0 -0 -0 -0 -0 -0 -0 -0 -0 -0 -0 -0 -0 -0 -0 -5 -1 -0 -0 -0 -0 -0 -0 -0
-0 -0 -0 -0 -0 -1 -0 -0 -0 -0 -0 -0 -0 -0 -0 -0 -0 -0 -0 -0 -1 -0 -0 -0 -1 -1 -0 -0 -1 -0 -0 -1 -3 -0 -0 -4 -0 -0 -0 -0 -0 -0 -0 -0
-0 -0 -0 -0 -0 -0 -0 -0 -0 -0 -0 -0 -0 -0 -0 -0 -0 -0 -0 -0 -0 -0 -0 -0 -1 -1 -0 -3 -1 -0 -0 -0 -0 -0 -8 -1 -0 -0 -0 -0 -0 -0 -0 -0
-0 -0 -0 -0 -0 -0 -0 -0 -0 -0 -0 -0 -0 -0 -0 -0 -0 -0 -0 -0 -0 -0 -0 -0 -1 -1 -1 -1 -0 -0 -0 -0 -0 -0 -1 -0 -0 -0 -0 -0 -0 -0 -0 -0
-0 -0 -0 -0 -0 -0 -0 -0 -0 -0 -0 -0 -0 -0 -0 -0 -0 -0 -0 -0 -0 -0 -0 -0 -1 -1 -1 -1 -0 -0 -0 -1 -0 -0 -1 -0 -0 -0 -0 -0 -0 -0 -0 -0
-0 -0 -0 -0 -0 -0 -0 -0 -0 -0 -0 -0 -0 -0 -0 -0 -0 -0 -0 -0 -0 -0 -0 -1 -1 -1 -1 -1 -1 -1 -1 -2 -1 -1 -0 -1 -1 -1 -0 -0 -0 -0 -0 -0
-0 -0 -0 -0 -0 -0 -0 -1 -0 -0 -0 -0 -0 -0 -0 -0 -0 -0 -0 -0 -0 -0 -0 -0 -0 -0 -0 -0 -0 -1 -1 -1 -1 -1 -0 -0 -1 -2 -0 -0 -0 -1 -0 -0
-0 -0 -0 -0 -0 -0 -0 -0 -0 -0 -0 -0 -0 -0 -0 -0 -0 -0 -0 -0 -0 -0 -0 -0 -0 -0 -0 -0 -0 -0 -0 -0 -0 -0 -0 -0 -0 -0 -0 -0 -10 -1 -2 -0
-0 -0 -0 -0 -0 -0 -0 -0 -0 -0 -0 -0 -0 -0 -0 -0 -0 -0 -0 -0 -0 -0 -0 -0 -0 -0 -0 -0 -0 -0 -0 -0 -0 -0 -0 -0 -7 -6 -1 -7 -16 -0 -9 -3
-0 -0 -0 -0 -0 -0 -0 -0 -0 -0 -0 -0 -0 -0 -0 -0 -0 -0 -0 -0 -0 -0 -0 -0 -0 -0 -0 -0 -0 -0 -0 -0 -0 -0 -0 -0 -0 -0 -0 -0 -0 -0 -0 -0
-0 -0 -0 -0 -0 -0 -0 -0 -0 -0 -0 -0 -0 -0 -0 -0 -0 -0 -0 -0 -0 -0 -0 -0 -0 -0 -0 -0 -0 -0 -0 -0 -0 -0 -0 -0 -0 -0 -0 -0 -0 -0 -0 -0
-0 -0 -0 -0 -0 -0 -0 -0 -0 -0 -0 -0 -0 -0 -0 -0 -0 -0 -0 -0 -0 -0 -0 -0 -0 -0 -0 -0 -0 -0 -0 -0 -0 -0 -0 -0 -0 -0 -0 -0 -0 -0 -0 -0
-0 -0 -0 -0 -0 -0 -0 -0 -0 -0 -0 -0 -0 -0 -0 -0 -0 -0 -0 -0 -0 -0 -0 -0 -0 -0 -0 -0 -0 -0 -0 -0 -0 -0 -0 -0 -0 -0 -0 -0 -0 -0 -0 -0
-0 -0 -0 -0 -0 -0 -0 -0 -0 -0 -0 -0 -0 -0 -0 -0 -0 -0 -0 -0 -0 -0 -0 -0 -0 -0 -0 -0 -0 -0 -0 -0 -0 -0 -0 -0 -0 -0 -0 -0 -0 -0 -0 -0
-0 -0 -0 -0 -0 -0 -0 -0 -0 -0 -0 -0 -0 -0 -0 -0 -0 -0 -0 -0 -0 -0 -0 -0 -0 -0 -0 -0 -0 -0 -0 -0 -0 -0 -0 -0 -0 -0 -0 -0 -0 -0 -0 -0
Wind_Speed
37 39 40 42 42 35 30 32 31 39 32 43 38 43 40 33 37 31 28 23 27 29 32 28 24 22 22 19 22 21 19 22 24 32 33 33 33 37 38 38 36 33 32 28
36 38 40 41 42 37 26 30 31 36 37 45 45 40 42 35 37 32 29 22 23 31 28 25 24 23 23 19 21 19 19 22 25 32 29 32 35 36 38 30 25 30 33 26
35 38 40 41 42 37 28 28 31 32 39 40 44 43 44 43 34 29 27 20 14 31 27 23 26 27 20 21 15 16 18 24 20 27 28 33 37 35 37 37 35 30 25 20
34 36 39 42 41 39 29 31 32 32 42 43 44 41 45 45 41 29 23 21 11 31 27 26 23 24 23 19 14 15 15 23 20 22 24 27 34 38 32 36 37 36 25 17
32 35 38 41 42 34 34 32 32 32 36 38 42 45 46 44 39 30 26 22 15 25 26 26 28 26 23 20 18 16 15 21 20 20 20 18 17 19 40 27 25 31 20 16
31 34 37 39 42 35 32 30 29 30 38 39 42 43 42 40 35 28 23 16 14 19 21 24 27 28 27 25 22 18 17 18 19 19 17 17 17 15 16 17 15 21 25 19
30 32 35 37 37 36 33 30 28 32 40 41 42 40 39 37 35 30 26 14 12 9 16 15 21 25 25 22 20 19 19 20 22 23 23 23 17 10 13 11 11 12 14 16
28 31 33 35 36 33 34 33 30 32 37 39 40 42 41 34 35 34 24 18 8 8 6 11 18 20 18 13 8 13 19 19 21 21 13 13 9 16 20 20 14 12 14 14
27 30 31 32 33 31 29 34 29 30 34 41 35 39 41 36 36 32 16 15 10 8 3 8 13 14 12 13 13 9 11 17 18 8 13 16 17 20 19 19 16 14 14 12
26 28 29 30 32 31 29 31 28 29 33 35 34 40 38 32 31 28 13 12 10 9 6 6 10 6 7 7 7 8 7 10 5 3 8 7 16 14 17 21 20 17 14 14
25 27 28 28 30 31 26 30 29 27 31 34 29 29 33 31 30 31 14 11 13 7 6 3 6 5 3 4 3 2 3 10 10 9 4 7 15 8 13 17 16 15 13 14
23 25 26 27 29 29 26 28 27 24 29 30 27 26 24 22 18 21 9 14 6 3 1 1 3 2 0 4 4 12 3 2 6 3 5 8 8 6 9 10 11 11 12 13
21 24 25 25 26 28 26 28 28 23 27 26 34 35 28 25 18 6 22 12 6 5 6 2 5 3 2 2 8 5 7 10 9 8 7 14 12 12 10 10 10 11 12 13
20 22 23 24 24 25 24 27 30 24 24 30 32 27 29 24 20 9 7 6 7 9 8 3 7 4 7 8 9 11 9 9 9 9 15 10 14 13 12 12 12 12 13 14
18 20 22 22 22 22 22 25 28 27 25 27 28 27 28 25 24 22 9 5 3 3 2 8 8 6 6 11 11 13 12 11 10 11 14 12 14 13 14 13 14 15 14 15
17 19 20 20 20 20 20 22 23 25 23 24 28 25 28 26 25 23 16 6 6 4 2 4 5 8 8 9 11 17 17 16 17 15 16 17 15 17 17 14 15 16 16 15
16 18 19 20 20 21 22 23 21 21 21 23 25 27 25 23 24 26 23 6 6 9 8 11 13 14 10 16 14 17 19 18 18 19 18 21 20 18 19 17 15 17 17 16
15 17 18 17 19 19 20 22 21 20 23 23 26 24 24 24 26 27 22 23 21 9 12 14 16 15 15 13 18 20 19 20 20 20 22 21 21 22 22 22 21 18 18 19
15 16 16 15 16 17 18 17 18 21 22 24 24 25 25 19 23 21 22 21 26 21 23 22 16 16 13 16 18 20 19 20 20 20 21 22 23 22 22 23 24 22 23 22
14 14 14 14 15 14 14 16 18 19 21 21 23 22 23 19 20 21 20 20 22 22 21 18 19 24 16 18 19 20 20 21 21 21 23 23 24 25 25 24 24 23 24 24
13 14 14 14 14 14 15 15 17 18 19 19 20 21 22 20 21 20 18 19 18 20 19 17 18 19 19 19 19 21 22 22 23 23 23 24 24 25 26 25 24 24 24 24
12 14 14 14 14 14 13 14 14 15 17 17 18 19 19 19 17 18 18 18 17 19 14 16 16 15 14 13 15 20 22 23 24 25 25 26 27 27 27 26 26 25 24 25
13 13 13 13 13 12 12 11 13 14 14 15 16 18 18 17 16 17 17 18 17 13 15 15 13 13 11 11 10 10 16 21 23 25 26 27 28 27 27 27 26 26 25 25
12 12 11 10 11 10 10 11 12 13 14 15 15 16 16 16 16 16 17 16 14 16 15 13 11 12 12 11 10 10 10 10 8 10 24 28 27 28 28 26 25 24 24 25
11 11 10 8 9 11 11 10 11 11 12 13 14 14 14 14 15 15 15 16 16 15 14 12 12 11 10 9 9 8 6 5 4 2 2 4 15 23 26 24 24 23 24 26
11 10 10 10 9 7 8 7 7 9 10 11 12 12 12 11 13 13 13 15 14 15 12 12 11 9 8 6 5 5 7 4 4 5 7 4 1 3 10 17 21 22 25 27
11 11 6 7 11 9 7 6 6 7 7 8 10 9 10 11 11 10 10 11 12 11 11 10 9 7 6 6 4 3 4 7 6 6 7 10 8 6 6 7 10 16 23 27
Wind_Direction
359 355 353 353 1 10 23 26 20 14 26 21 18 14 11 9 7 11 12 14 7 350 311 295 275 267 261 286 292 270 262 245 236 220 218 221 222 219 217 219 221 229 233 230
2 358 355 357 4 17 28 27 28 27 29 17 17 18 14 14 9 11 14 18 17 339 306 291 270 265 262 274 283 267 273 237 228 215 217 225 218 219 218 224 231 225 226 234
4 1 360 360 8 17 32 30 22 24 27 26 19 16 14 12 18 16 18 22 36 313 300 283 257 253 247 280 270 281 271 233 240 219 219 216 216 218 221 224 224 221 230 236
8 5 4 4 10 18 35 33 30 31 20 22 21 20 17 14 15 22 28 25 17 302 292 275 251 243 249 255 257 278 281 226 242 238 230 220 216 217 220 221 225 228 233 246
10 9 10 10 13 32 36 37 33 33 29 26 22 21 18 18 19 25 25 17 306 289 271 261 244 237 233 237 245 278 266 229 235 224 214 206 211 230 220 229 232 232 228 243
11 13 14 17 18 34 38 41 43 37 29 26 22 20 19 20 23 31 23 17 315 291 277 256 240 229 226 229 240 249 245 230 219 209 207 197 214 240 221 222 240 239 223 244
14 16 19 21 29 35 42 43 42 36 28 27 24 23 24 25 27 26 31 359 340 295 280 236 212 210 209 217 227 227 221 220 211 213 212 214 220 261 233 223 242 250 247 254
15 19 23 27 31 39 42 43 45 39 33 32 29 28 26 30 33 36 37 347 8 318 191 182 178 183 192 205 224 211 204 211 209 211 204 206 243 262 239 227 235 268 256 261
18 23 28 32 34 42 47 43 50 47 38 32 34 30 31 34 34 39 4 12 60 6 141 175 169 181 202 205 217 240 221 209 212 224 203 221 268 266 240 230 229 276 268 261
21 26 31 35 36 42 49 47 50 49 42 40 39 34 35 39 41 43 35 359 22 24 50 105 153 143 192 198 215 245 245 211 189 195 205 267 296 263 231 226 236 270 272 266
23 29 34 38 39 41 54 48 51 53 46 43 47 45 40 43 49 50 42 89 14 21 50 120 167 162 206 189 18 278 236 208 213 223 216 261 312 265 228 248 258 268 279 276
28 32 37 42 42 43 53 48 50 61 54 49 54 53 53 58 71 69 75 91 26 88 90 340 225 171 211 22 46 11 28 8 35 208 199 332 329 305 285 272 269 281 285 286
30 34 39 42 45 45 52 50 48 61 50 53 49 47 56 63 84 146 83 105 106 105 129 229 327 191 290 39 17 3 2 4 25 225 330 2 352 340 330 320 301 297 305 304
33 34 38 43 47 47 55 51 47 58 56 50 50 60 58 63 78 137 173 168 131 133 139 337 353 339 329 353 351 2 322 323 343 359 350 333 349 339 331 337 331 325 317 321
34 35 37 43 48 50 60 57 53 55 58 56 57 61 60 63 73 86 319 280 281 132 69 0 352 322 316 1 352 349 321 317 316 321 339 322 334 328 338 341 341 340 329 326
33 33 35 41 48 57 61 52 57 54 64 62 56 65 60 63 73 85 108 311 305 303 283 312 338 334 321 334 355 348 344 344 336 317 344 343 332 341 343 339 343 349 348 334
35 30 31 37 51 55 54 53 56 60 69 64 59 59 65 67 77 84 90 8 152 309 307 339 346 346 338 3 353 345 354 354 354 357 352 357 353 346 347 343 338 347 349 347
37 29 33 47 55 63 58 55 59 67 64 67 58 61 68 71 75 80 87 88 96 71 322 331 334 334 344 339 353 358 359 4 5 4 5 4 1 1 359 356 354 346 339 338
36 37 48 52 47 49 52 59 66 64 64 61 61 58 59 76 78 85 85 90 84 95 90 79 337 344 330 338 342 350 349 350 351 353 353 355 353 350 346 346 347 343 341 337
38 42 42 40 47 53 65 58 57 56 59 68 62 65 63 77 80 80 85 87 83 81 88 101 100 46 353 347 350 348 345 346 343 342 342 341 343 343 339 335 335 335 337 338
33 32 36 42 49 51 51 54 53 52 57 66 67 65 63 76 72 74 87 84 84 78 85 91 93 96 88 2 350 348 348 344 340 338 335 331 328 328 330 331 332 331 334 336
37 38 41 39 38 42 47 47 54 57 57 70 69 64 69 74 82 78 83 81 84 77 92 87 87 101 108 90 60 9 344 339 336 338 332 331 329 326 322 324 324 324 326 329
25 23 25 30 33 39 42 47 47 54 70 74 74 63 67 73 77 77 76 71 72 88 82 82 92 101 109 112 109 93 31 5 354 342 336 329 327 329 327 322 324 324 323 324
10 16 21 30 33 34 41 48 48 56 69 72 70 62 64 67 65 67 63 72 76 67 66 71 94 106 101 95 90 84 70 65 63 44 352 337 333 326 324 326 328 327 326 327
1 9 20 24 28 31 42 56 58 65 70 64 58 59 65 63 60 65 62 62 60 62 63 79 98 103 97 89 73 67 69 53 35 24 12 25 5 341 328 330 326 326 325 324
345 355 7 20 25 34 37 57 63 76 60 55 52 49 56 66 58 59 60 54 56 56 71 78 90 96 86 76 67 42 24 19 16 23 22 14 30 45 16 354 339 333 324 317
337 345 344 9 9 23 38 60 80 87 58 38 42 47 48 64 49 58 63 52 54 61 74 75 81 84 71 52 42 35 18 12 14 16 17 17 25 39 56 50 32 5 336 323